When you browse on this site, cookies collect data to enhance your experience and personalize the content and advertising you see.
Visit our Privacy Policy to learn more. By continuing to use the site, you agree to this use of cookies and data.
  • In Lithuania
  • List of Countries
  • For 7 days
  • Water Temperature
  • Satellite Maps
  • Weather Map
  • Weather Widgets
  • user-avatar
    Login

    Hourly Weather Surabaya

    Today, 18 December, Tuesday

    Time Temperature Precipitation Wind Pressure Humidity
    00:00 +29°C° 0 mm 2 mps 757 mmHg 75%
    01:00 +29°C° 0 mm 2 mps 757 mmHg 75%
    02:00 +29°C° 0 mm 2 mps 757 mmHg 77%
    03:00 +28°C° 0 mm 2 mps 757 mmHg 76%
    04:00 +28°C° 0 mm 2 mps 757 mmHg 76%
    05:00 +28°C° 0 mm 1 mps 757 mmHg 76%
    06:00 +29°C° 0 mm 1 mps 757 mmHg 73%
    07:00 +30°C° 0 mm 1 mps 757 mmHg 69%
    08:00 +31°C° 0 mm 1 mps 757 mmHg 66%
    09:00 +33°C° 0 mm 1 mps 757 mmHg 61%
    10:00 +34°C° 0 mm 1 mps 757 mmHg 56%
    11:00 +36°C° 0 mm 1 mps 757 mmHg 51%
    12:00 +36°C° 0.1 mm 1 mps 757 mmHg 51%
    13:00 +37°C° 0.1 mm 2 mps 756 mmHg 50%
    14:00 +36°C° 0 mm 2 mps 756 mmHg 52%
    15:00 +35°C° 0.7 mm 2 mps 756 mmHg 57%
    16:00 +34°C° 0.7 mm 2 mps 756 mmHg 62%
    17:00 +32°C° 0.7 mm 2 mps 756 mmHg 68%
    18:00 +31°C° 0.6 mm 1 mps 756 mmHg 72%
    19:00 +30°C° 0.6 mm 1 mps 756 mmHg 75%
    20:00 +29°C° 0 mm 1 mps 757 mmHg 79%
    21:00 +29°C° 0.3 mm 1 mps 757 mmHg 79%
    22:00 +29°C° 0.3 mm 1 mps 757 mmHg 80%
    23:00 +29°C° 0.3 mm 1 mps 757 mmHg 81%

    Tomorrow, 19 December, Wednesday

    Time Temperature Precipitation Wind Pressure Humidity
    00:00 +28°C° 0.4 mm 1 mps 757 mmHg 82%
    01:00 +28°C° 0.4 mm 1 mps 757 mmHg 82%
    02:00 +28°C° 0.4 mm 1 mps 757 mmHg 83%
    03:00 +28°C° 0.2 mm 1 mps 757 mmHg 83%
    04:00 +28°C° 0.2 mm 1 mps 757 mmHg 83%
    05:00 +27°C° 0.2 mm 2 mps 757 mmHg 83%
    06:00 +28°C° 0 mm 2 mps 757 mmHg 79%
    07:00 +29°C° 0 mm 2 mps 757 mmHg 76%
    08:00 +30°C° 0 mm 2 mps 758 mmHg 72%
    09:00 +32°C° 0.2 mm 1 mps 758 mmHg 66%
    10:00 +33°C° 0.2 mm 1 mps 758 mmHg 60%
    11:00 +35°C° 0.2 mm 1 mps 758 mmHg 53%
    12:00 +35°C° 0 mm 1 mps 757 mmHg 52%
    13:00 +36°C° 0 mm 1 mps 757 mmHg 50%
    14:00 +37°C° 0 mm 2 mps 756 mmHg 49%
    15:00 +36°C° 0.4 mm 2 mps 756 mmHg 54%
    16:00 +35°C° 0.4 mm 2 mps 756 mmHg 59%
    17:00 +33°C° 0.4 mm 3 mps 756 mmHg 64%
    18:00 +31°C° 0.6 mm 2 mps 756 mmHg 68%
    19:00 +30°C° 0.6 mm 2 mps 756 mmHg 73%
    20:00 +29°C° 0.6 mm 2 mps 757 mmHg 78%
    21:00 +29°C° 0.4 mm 2 mps 757 mmHg 78%
    22:00 +29°C° 0.4 mm 1 mps 757 mmHg 79%
    23:00 +29°C° 0.4 mm 1 mps 758 mmHg 79%

    Day after tomorrow, 20 December, Thursday

    Time Temperature Precipitation Wind Pressure Humidity
    00:00 +29°C° 0.1 mm 1 mps 757 mmHg 79%
    01:00 +28°C° 0.1 mm 1 mps 757 mmHg 80%
    02:00 +28°C° 0.1 mm 1 mps 757 mmHg 81%
    03:00 +28°C° 0.1 mm 1 mps 757 mmHg 81%
    04:00 +28°C° 0.1 mm 1 mps 757 mmHg 82%
    05:00 +28°C° 0.1 mm 1 mps 757 mmHg 82%
    06:00 +28°C° 0.1 mm 1 mps 757 mmHg 79%
    07:00 +29°C° 0.1 mm 1 mps 757 mmHg 76%
    08:00 +30°C° 0.1 mm 1 mps 758 mmHg 73%
    09:00 +31°C° 0.1 mm 1 mps 758 mmHg 68%
    10:00 +33°C° 0.1 mm 1 mps 757 mmHg 63%
    11:00 +34°C° 0.1 mm 1 mps 757 mmHg 57%
    12:00 +34°C° 0.7 mm 1 mps 757 mmHg 59%
    13:00 +34°C° 0.7 mm 2 mps 756 mmHg 61%
    14:00 +34°C° 0.7 mm 2 mps 755 mmHg 63%
    15:00 +34°C° 1.1 mm 2 mps 755 mmHg 65%
    16:00 +32°C° 1.1 mm 2 mps 755 mmHg 67%
    17:00 +32°C° 1.1 mm 2 mps 755 mmHg 69%
    18:00 +31°C° 0.8 mm 1 mps 755 mmHg 73%
    19:00 +30°C° 0.8 mm 1 mps 756 mmHg 77%
    20:00 +29°C° 0.8 mm 1 mps 756 mmHg 82%
    21:00 +29°C° 0.4 mm 1 mps 756 mmHg 82%
    22:00 +28°C° 0.4 mm 1 mps 757 mmHg 82%
    23:00 +28°C° 0.4 mm 1 mps 757 mmHg 82%

    21 December, Friday

    Time Temperature Precipitation Wind Pressure Humidity
    00:00 +28°C° 0 mm 1 mps 756 mmHg 83%
    01:00 +28°C° 0 mm 1 mps 756 mmHg 84%
    02:00 +28°C° 0 mm 1 mps 755 mmHg 84%
    03:00 +27°C° 0 mm 1 mps 755 mmHg 84%
    04:00 +27°C° 0 mm 1 mps 755 mmHg 84%
    05:00 +27°C° 0 mm 1 mps 755 mmHg 84%
    06:00 +28°C° 0 mm 1 mps 755 mmHg 81%
    07:00 +29°C° 0 mm 1 mps 756 mmHg 77%
    08:00 +30°C° 0 mm 1 mps 756 mmHg 73%
    09:00 +31°C° 0 mm 1 mps 756 mmHg 67%
    10:00 +33°C° 0 mm 1 mps 757 mmHg 61%
    11:00 +35°C° 0 mm 1 mps 757 mmHg 54%
    12:00 +35°C° 0.2 mm 1 mps 756 mmHg 55%
    13:00 +35°C° 0.2 mm 2 mps 755 mmHg 55%
    14:00 +35°C° 0.2 mm 2 mps 755 mmHg 55%
    15:00 +35°C° 1 mm 2 mps 754 mmHg 59%
    16:00 +34°C° 1 mm 3 mps 754 mmHg 63%
    17:00 +33°C° 1 mm 3 mps 754 mmHg 67%
    18:00 +31°C° 0.2 mm 2 mps 754 mmHg 70%
    19:00 +30°C° 0.2 mm 2 mps 755 mmHg 73%
    20:00 +29°C° 0.2 mm 2 mps 756 mmHg 76%
    21:00 +29°C° 0.9 mm 1 mps 756 mmHg 78%
    22:00 +29°C° 0.9 mm 1 mps 756 mmHg 79%
    23:00 +29°C° 0.9 mm 1 mps 757 mmHg 80%

    22 December, Saturday

    Time Temperature Precipitation Wind Pressure Humidity
    00:00 +29°C° 0.4 mm 1 mps 756 mmHg 81%
    01:00 +28°C° 0.4 mm 1 mps 756 mmHg 82%
    02:00 +28°C° 0.4 mm 1 mps 755 mmHg 83%
    03:00 +28°C° 0.3 mm 1 mps 755 mmHg 84%
    04:00 +28°C° 0.3 mm 1 mps 755 mmHg 84%
    05:00 +28°C° 0.3 mm 1 mps 755 mmHg 84%
    06:00 +28°C° 0 mm 1 mps 755 mmHg 81%
    07:00 +29°C° 0 mm 1 mps 756 mmHg 78%
    08:00 +30°C° 0 mm 1 mps 756 mmHg 74%
    09:00 +32°C° 0 mm 1 mps 756 mmHg 68%
    10:00 +34°C° 0 mm 2 mps 756 mmHg 62%
    11:00 +36°C° 0 mm 2 mps 756 mmHg 56%
    12:00 +36°C° 0.3 mm 2 mps 756 mmHg 57%
    13:00 +36°C° 0.3 mm 2 mps 755 mmHg 58%
    14:00 +35°C° 0.3 mm 2 mps 754 mmHg 58%
    15:00 +35°C° 1.9 mm 3 mps 754 mmHg 62%
    16:00 +34°C° 1.9 mm 3 mps 754 mmHg 67%
    17:00 +33°C° 1.9 mm 3 mps 754 mmHg 71%
    18:00 +31°C° 1.2 mm 3 mps 754 mmHg 74%
    19:00 +30°C° 1.2 mm 3 mps 755 mmHg 78%
    20:00 +29°C° 1.2 mm 2 mps 756 mmHg 81%
    21:00 +29°C° 0.3 mm 2 mps 756 mmHg 81%
    22:00 +29°C° 0.3 mm 2 mps 756 mmHg 81%
    23:00 +28°C° 0.3 mm 2 mps 757 mmHg 81%

    23 December, Sunday

    Time Temperature Precipitation Wind Pressure Humidity
    00:00 +28°C° 0.1 mm 2 mps 756 mmHg 82%
    01:00 +28°C° 0.1 mm 2 mps 756 mmHg 82%
    02:00 +28°C° 0.1 mm 2 mps 755 mmHg 82%
    03:00 +28°C° 0.2 mm 2 mps 755 mmHg 82%
    04:00 +27°C° 0.2 mm 2 mps 755 mmHg 81%
    05:00 +27°C° 0.2 mm 2 mps 755 mmHg 81%
    06:00 +28°C° 0 mm 2 mps 755 mmHg 78%
    07:00 +29°C° 0 mm 2 mps 756 mmHg 75%
    08:00 +30°C° 0 mm 2 mps 756 mmHg 72%
    09:00 +31°C° 0 mm 2 mps 756 mmHg 66%
    10:00 +34°C° 0 mm 2 mps 756 mmHg 60%
    11:00 +35°C° 0 mm 2 mps 756 mmHg 54%
    12:00 +36°C° 0.2 mm 3 mps 755 mmHg 53%
    13:00 +36°C° 0.2 mm 3 mps 755 mmHg 52%
    14:00 +37°C° 0.2 mm 4 mps 754 mmHg 50%
    15:00 +36°C° 0.8 mm 4 mps 754 mmHg 54%
    16:00 +35°C° 0.8 mm 4 mps 754 mmHg 59%
    17:00 +34°C° 0.8 mm 4 mps 753 mmHg 63%
    18:00 +33°C° 0.8 mm 4 mps 754 mmHg 66%
    19:00 +31°C° 0.8 mm 3 mps 755 mmHg 68%
    20:00 +30°C° 0.8 mm 3 mps 755 mmHg 71%
    21:00 +30°C° 0.3 mm 3 mps 756 mmHg 71%
    22:00 +29°C° 0.3 mm 3 mps 756 mmHg 72%
    23:00 +29°C° 0.3 mm 3 mps 756 mmHg 72%
    Show more